Location: Newark
(41.8922°N, 9.0050°E)
Time: 11:46:50
(UTC+00:00)

Envisat - Pass Details

Date: 28 January 2020
Orbit: 764 x 766 km, 98.1° (Epoch: 20 February)

Event Time Altitude Azimuth Distance (km) Brightness Sun altitude
Rises 06:00:18 0° 14° (NNE) 3,240 6.2 -7.9°
Reaches altitude 10° 06:02:37 10° 16° (NNE) 2,310 5.5 -7.5°
Maximum altitude 06:07:43 76° 102° (ESE) 792 3.3 -6.6°
Drops below altitude 10° 06:12:46 10° 188° (S) 2,293 5.6 -5.7°
Sets 06:15:04 0° 190° (S) 3,214 6.4 -5.3°
